Camarillo, CA

6:36 PM PDT on October 19, 2017 (GMT -0700)
Camarillo

Weather History for KCMA - May, 2013

Change the Weather History Date:

Monday, May 20, 2013

  Actual Average Record
Temperature  
Mean Temperature 68 °F 62 °F  
Max Temperature 80 °F 71 °F 91 °F (1942)
Min Temperature 56 °F 53 °F 38 °F (1933)
Degree Days  
Heating Degree Days 0 4  
Month to date heating degree days 1 90  
Since 1 July heating degree days 1421 1910  
Cooling Degree Days 3 0  
Month to date cooling degree days 54 0  
Year to date cooling degree days 81 20  
Growing Degree Days 17 (Base 50)    
Moisture  
Dew Point 54 °F    
Average Humidity 59    
Maximum Humidity 77    
Minimum Humidity 40    
Precipitation  
Precipitation 0.00 in 0.00 in 0.15 in (1972)
Month to date precipitation 0.08 0.29  
Year to date precipitation 2.15 10.91  
Since 1 July precipitation 4.86  
Sea Level Pressure  
Sea Level Pressure 29.94 in    
Wind  
Wind Speed 5 mph (WSW)    
Max Wind Speed 14 mph    
Max Gust Speed 18 mph    
Visibility 9 miles    
Events      
T = Trace of Precipitation, MM = Missing Value Source: NWS Daily Summary

Daily Weather History Graph

Daily Weather History Graph

Search for Another Location

Airport or City:

Trip Planner

Search our weather history database for the weather conditions in past years. The results will help you decide how hot, cold, wet, or windy it might be!

Date:

Astronomy

May. 20, 2013 Rise Set
Actual Time 5:50 AM PDT 7:55 PM PDT
Civil Twilight 5:22 AM PDT 8:23 PM PDT
Nautical Twilight 4:48 AM PDT 8:57 PM PDT
Astronomical Twilight 4:11 AM PDT 9:34 PM PDT
Moon 3:19 PM PDT 2:35 AM PDT
Length of Visible Light 15h 00m
Length of Day
14h 04m
Waxing Gibbous, 76% of the Moon is Illuminated
May 20
Waxing Gibbous
May 24
Full
May 31
Last Quarter
Jun 8
New
Jun 16
First Quarter

Hourly Weather History & Observations

Time (PDT) Temp. Dew Point Humidity Pressure Visibility Wind Dir Wind Speed Gust Speed Precip Events Conditions
1:55 AM 61.0 °F 51.1 °F 70% 29.94 in 10.0 mi Calm Calm - N/A   Clear
2:55 AM 61.0 °F 51.1 °F 70% 29.93 in 10.0 mi Calm Calm - N/A   Clear
3:55 AM 55.9 °F 48.0 °F 75% 29.93 in 10.0 mi WNW 3.5 mph - N/A   Clear
5:55 AM 57.0 °F 48.0 °F 72% 29.96 in 9.0 mi Calm Calm - N/A   Clear
7:55 AM 66.0 °F 53.1 °F 63% 29.97 in 9.0 mi Calm Calm - N/A   Clear
8:55 AM 70.0 °F 55.0 °F 59% 29.97 in 10.0 mi Variable 3.5 mph - N/A   Clear
9:55 AM 73.9 °F 55.9 °F 53% 29.97 in 10.0 mi SW 6.9 mph - N/A   Clear
10:55 AM 75.9 °F 57.0 °F 52% 29.98 in 10.0 mi SSW 9.2 mph - N/A   Clear
11:55 AM 77.0 °F 57.0 °F 50% 29.97 in 10.0 mi SSW 8.1 mph - N/A   Clear
12:55 PM 78.1 °F 55.9 °F 46% 29.96 in 10.0 mi WSW 9.2 mph 18.4 mph N/A   Clear
1:55 PM 79.0 °F 55.9 °F 45% 29.96 in 10.0 mi SW 9.2 mph 16.1 mph N/A   Clear
2:55 PM 79.0 °F 55.9 °F 45% 29.95 in 10.0 mi WSW 12.7 mph 17.3 mph N/A   Clear
3:55 PM 75.9 °F 55.9 °F 50% 29.94 in 10.0 mi WSW 8.1 mph - N/A   Clear
4:55 PM 77.0 °F 54.0 °F 45% 29.92 in 10.0 mi SW 5.8 mph - N/A   Clear
5:55 PM 77.0 °F 52.0 °F 42% 29.91 in 10.0 mi West 8.1 mph - N/A   Clear
7:55 PM 75.0 °F 50.0 °F 41% 29.90 in 10.0 mi Calm Calm - N/A   Clear
8:55 PM 69.1 °F 55.0 °F 61% 29.91 in 9.0 mi WNW 5.8 mph - N/A   Clear
9:55 PM 66.0 °F 55.0 °F 68% 29.92 in 8.0 mi SSW 3.5 mph - N/A   Clear
10:55 PM 64.9 °F 55.9 °F 73% 29.93 in 7.0 mi West 4.6 mph - N/A   Clear
11:55 PM 66.0 °F 57.0 °F 73% 29.93 in 7.0 mi WNW 5.8 mph - N/A   Clear